This demonstration page uses our WeatherBlox Daily Observations layout. Learn more.

Hourly Observations for January 15, 2019

Temp ( °F °C ) Dew Point ( °F °C ) Humidity (%) Winds ( mph kmh ) Pressure ( in mb ) Visibility ( mi km ) Precip ( " mm )
12:15 am 00:15 Cloudy with Fog N/A N/A N/A SW 3 6 N/A 0.5 0.80467 0 0
12:35 am 00:35 Cloudy with Fog N/A N/A N/A SW 5 7 N/A 0.5 0.80467 0 0
12:55 am 00:55 Cloudy with Mist and Fog N/A N/A N/A Calm N/A 0.75 1.207005 0 0
1:15 am 01:15 Cloudy with Fog N/A N/A N/A SSW 3 6 N/A 0.5 0.80467 0 0
1:35 am 01:35 Cloudy with Fog N/A N/A N/A SSW 5 7 N/A 0.5 0.80467 0 0
1:55 am 01:55 Cloudy with Fog N/A N/A N/A Calm N/A 0.25 0.402335 0 0
2:15 am 02:15 Cloudy with Fog N/A N/A N/A Calm N/A 0.25 0.402335 0 0
2:35 am 02:35 Cloudy with Fog N/A N/A N/A Calm N/A 0.25 0.402335 0 0
2:55 am 02:55 Cloudy with Fog N/A N/A N/A Calm N/A 0.25 0.402335 0 0
3:15 am 03:15 Cloudy with Fog N/A N/A N/A Calm N/A 0.5 0.80467 0 0
3:35 am 03:35 Cloudy with Fog N/A N/A N/A Calm N/A 0.25 0.402335 0 0
3:55 am 03:55 Cloudy with Fog N/A N/A N/A Calm N/A 0.25 0.402335 0 0
4:15 am 04:15 Cloudy with Fog N/A N/A N/A Calm N/A 0.5 0.80467 0 0
4:35 am 04:35 Cloudy with Mist and Fog N/A N/A N/A Calm N/A 1 1.60934 0 0
4:55 am 04:55 Cloudy with Fog N/A N/A N/A Calm N/A 0.5 0.80467 0 0
5:15 am 05:15 Cloudy with Mist and Fog N/A N/A N/A Calm N/A 1 1.60934 0 0
5:35 am 05:35 Cloudy with Mist and Fog N/A N/A N/A Calm N/A 1.25 2.011675 0 0
5:55 am 05:55 Cloudy with Mist and Fog N/A N/A N/A Calm N/A 0.75 1.207005 0 0
6:15 am 06:15 Cloudy with Fog N/A N/A N/A Calm N/A 0.5 0.80467 0 0
6:35 am 06:35 Cloudy with Fog N/A N/A N/A Calm N/A 0.5 0.80467 0 0
6:55 am 06:55 Cloudy with Fog N/A N/A N/A Calm N/A 0.5 0.80467 0 0
7:15 am 07:15 Cloudy with Fog N/A N/A N/A Calm N/A 0.5 0.80467 0 0
7:35 am 07:35 Cloudy with Mist and Fog N/A N/A N/A Calm N/A 1.25 2.011675 0 0
7:55 am 07:55 Partly Cloudy N/A N/A N/A Calm N/A 10 16.0934 0 0
8:15 am 08:15 Sunny N/A N/A N/A Calm N/A 10 16.0934 0 0
8:35 am 08:35 Sunny N/A N/A N/A Calm N/A 10 16.0934 0 0
8:55 am 08:55 Sunny N/A N/A N/A Calm N/A 10 16.0934 0 0
9:15 am 09:15 Sunny N/A N/A N/A Calm N/A 10 16.0934 0 0
9:35 am 09:35 Sunny N/A N/A N/A SSW 3 6 N/A 10 16.0934 0 0
9:55 am 09:55 Sunny N/A N/A N/A Calm N/A 10 16.0934 0 0
10:15 am 10:15 Sunny N/A N/A N/A Calm N/A 10 16.0934 0 0
10:35 am 10:35 Sunny N/A N/A N/A Calm N/A 10 16.0934 0 0
10:55 am 10:55 Sunny N/A N/A N/A Calm N/A 10 16.0934 0 0
11:15 am 11:15 Sunny N/A N/A N/A Calm N/A 10 16.0934 0 0
11:35 am 11:35 Sunny N/A N/A N/A Calm N/A 10 16.0934 0 0
11:55 am 11:55 Sunny 33 0.5 33 0.5 100 100 SW 6 9 30.18 1022 10 16.0934 0 0
12:15 pm 12:15 Sunny 35 1.4 35 1.4 100 100 SW 6 9 30.15 1021 10 16.0934 0 0
12:35 pm 12:35 Sunny 36 2.3 36 2.3 100 100 W 6 9 30.15 1021 10 16.0934 0 0
12:55 pm 12:55 Sunny 38 3.2 37 2.6 96 96 W 8 13 30.15 1021 10 16.0934 0 0
1:15 pm 13:15 Sunny 40 4.4 36 2 85 85 WSW 6 9 30.09 1019 10 16.0934 0 0
1:35 pm 13:35 Sunny 41 5.1 34 1.3 77 77 WSW 7 11 30.09 1019 10 16.0934 0 0
1:55 pm 13:55 Sunny 43 6.1 34 0.9 70 70 W 9 15 30.09 1019 10 16.0934 0 0
2:15 pm 14:15 Sunny 44 6.5 35 1.5 71 71 WSW 7 11 30.06 1018 10 16.0934 0 0
2:35 pm 14:35 Sunny 45 7.1 35 1.5 68 68 W 8 13 30.06 1018 10 16.0934 0 0
2:55 pm 14:55 Sunny 45 7.3 35 1.7 68 68 WSW 7 11 30.06 1018 10 16.0934 0 0
3:15 pm 15:15 Sunny 46 7.5 35 1.9 68 68 SW 7 11 30.06 1018 10 16.0934 0 0
3:35 pm 15:35 Sunny 46 7.7 35 1.6 66 66 WSW 6 9 30.06 1018 10 16.0934 0 0
3:55 pm 15:55 Sunny 46 7.8 35 1.6 65 65 W 6 9 30.06 1018 10 16.0934 0 0
4:15 pm 16:15 Sunny 46 7.6 35 1.5 66 66 W 6 9 30.06 1018 10 16.0934 0 0
4:35 pm 16:35 Sunny 44 6.9 36 2 71 71 W 5 7 30.06 1018 10 16.0934 0 0
4:55 pm 16:55 Sunny 43 6.2 35 1.7 73 73 Calm 30.06 1018 10 16.0934 0 0
5:15 pm 17:15 Sunny 42 5.5 35 1.5 76 76 Calm 30.09 1019 10 16.0934 0 0
5:35 pm 17:35 Sunny 41 4.8 34 1.2 78 78 Calm 30.09 1019 10 16.0934 0 0
5:55 pm 17:55 Clear 38 3.1 33 0.4 83 83 W 3 6 30.09 1019 10 16.0934 0 0
6:15 pm 18:15 Clear 36 2.3 32 0.2 86 86 Calm 30.15 1021 10 16.0934 0 0
6:35 pm 18:35 Clear 33 0.8 31 -0.4 92 92 Calm 30.15 1021 10 16.0934 0 0
6:55 pm 18:55 Clear 32 -0.1 31 -0.6 96 96 Calm 30.18 1022 10 16.0934 0 0
7:15 pm 19:15 Clear 32 0 32 -0.2 99 99 Calm 30.18 1022 10 16.0934 0 0
7:35 pm 19:35 Clear 33 0.7 30 -0.9 89 89 NW 3 6 30.18 1022 10 16.0934 0 0
7:55 pm 19:55 Clear 31 -0.3 29 -1.9 89 89 NW 5 7 30.21 1023 10 16.0934 0 0
8:15 pm 20:15 Clear 32 -0.2 28 -2.1 87 87 NW 5 7 30.21 1023 10 16.0934 0 0
8:35 pm 20:35 Clear 32 0 27 -2.6 83 83 N 3 6 30.21 1023 10 16.0934 0 0
8:55 pm 20:55 Clear 30 -1.2 27 -2.9 88 88 N 5 7 30.24 1024 10 16.0934 0 0
9:15 pm 21:15 Clear 30 -0.9 26 -3.6 82 82 NNE 9 15 30.24 1024 10 16.0934 0 0
9:35 pm 21:35 Clear 33 0.5 27 -2.7 79 79 NNE 9 15 30.24 1024 10 16.0934 0 0
9:55 pm 21:55 Clear 31 -0.5 27 -3 83 83 NNE 10 17 30.24 1024 10 16.0934 0 0
10:15 pm 22:15 Clear 31 -0.6 27 -2.9 85 85 NNE 10 17 30.24 1024 10 16.0934 0 0
10:35 pm 22:35 Clear 29 -1.6 26 -3.2 89 89 NNE 7 11 30.24 1024 10 16.0934 0 0
10:55 pm 22:55 Clear 27 -2.6 25 -3.7 92 92 NNE 7 11 30.27 1025 10 16.0934 0 0
11:15 pm 23:15 Clear 27 -3 25 -4.1 92 92 NNE 8 13 30.27 1025 10 16.0934 0 0
11:35 pm 23:35 Clear 27 -2.6 26 -3.5 94 94 NNE 5 7 30.27 1025 10 16.0934 0 0
11:55 pm 23:55 Clear 27 -2.9 25 -3.7 94 94 NE 7 11 30.27 1025 10 16.0934 0 0

Powered by AerisWeather